Location: Copeville
(33.0796°N, 96.4155°W)
Time: 14:13:47
(UTC+00:00)

Meteor 1-27 Rocket - Visible Passes

Search period start: 25 June 2022 00:00
Search period end: 05 July 2022 00:00
Orbit: 830 x 909 km, 81.3° (Epoch: 24 June)

Date Brightness Start Highest point End Pass type
(mag) Time Alt. Az. Time Alt. Az. Time Alt. Az.
25 Jun 3.7 10:11:20 10° N 10:17:02 88° E 10:22:35 10° S visible
26 Jun 3.7 10:05:04 10° N 10:10:44 89° W 10:16:17 10° S visible
27 Jun 3.7 09:58:46 10° N 10:04:26 87° W 10:09:58 10° S visible
28 Jun 3.6 09:52:29 10° N 09:58:08 84° W 10:03:40 10° S visible
29 Jun 3.6 09:46:12 10° N 09:51:50 82° W 09:57:21 10° S visible
30 Jun 6.6 08:01:25 10° ENE 08:01:34 10° ENE 08:01:42 10° ENE visible
30 Jun 3.6 09:39:55 10° N 09:45:32 79° W 09:50:56 11° S visible
01 Jul 6.5 07:54:20 10° ENE 07:55:18 10° ENE 07:56:15 10° ENE visible
01 Jul 3.6 09:33:38 10° NNW 09:39:14 77° W 09:43:41 16° S visible
02 Jul 6.4 07:47:40 10° NE 07:49:01 11° ENE 07:50:22 10° E visible
02 Jul 3.6 09:27:21 10° NNW 09:32:56 74° W 09:36:34 22° S visible
03 Jul 6.3 07:41:06 10° NE 07:42:45 11° ENE 07:44:23 10° E visible
03 Jul 3.6 09:21:04 10° NNW 09:26:38 72° W 09:29:31 29° S visible
04 Jul 6.3 07:34:35 10° NE 07:36:28 12° ENE 07:38:21 10° E visible
04 Jul 3.6 09:14:47 10° NNW 09:20:20 69° W 09:22:34 36° SSW visible
